Location: Newark
(48.9320°N, 2.2664°E)
Time: 05:10:32
(UTC+00:00)

Altair - Visible Passes

Search period start: 27 February 2020 00:00
Search period end: 08 March 2020 00:00
Orbit: 1502 x 1682 km, 47.2° (Epoch: 25 February)

Date Brightness Start Highest point End Pass type
(mag) Time Alt. Az. Time Alt. Az. Time Alt. Az.
27 Feb 9.4 00:28:59 15° E 00:28:59 15° E 00:30:20 10° ENE visible
27 Feb 7.6 02:27:00 65° ESE 02:27:00 65° ESE 02:35:13 10° E visible
27 Feb 7.6 04:25:01 33° W 04:29:53 66° SSW 04:39:46 10° SE visible
28 Feb 8.0 02:03:08 51° E 02:03:08 51° E 02:10:01 10° E visible
28 Feb 7.5 04:01:09 43° W 04:04:43 68° SSW 04:14:37 10° ESE visible
28 Feb 8.3 06:00:05 10° WNW 06:08:28 33° SW 06:17:03 10° SSE visible
29 Feb 8.4 01:39:19 39° E 01:39:19 39° E 01:44:47 10° E visible
29 Feb 7.4 03:37:20 55° WSW 03:39:33 70° SSW 03:49:27 10° ESE visible
29 Feb 8.2 05:35:21 12° W 05:43:24 36° SW 05:52:09 10° SSE visible
01 Mar 8.8 01:15:32 29° E 01:15:32 29° E 01:19:33 10° E visible
01 Mar 7.4 03:13:33 69° SW 03:14:23 72° SSW 03:24:17 10° ESE visible
01 Mar 8.1 05:11:35 17° W 05:18:18 38° SW 05:27:13 10° SSE visible
02 Mar 9.1 00:51:49 21° E 00:51:49 21° E 00:54:20 10° E visible
02 Mar 7.4 02:49:50 72° SSE 02:49:50 72° SSE 02:59:06 10° ESE visible
02 Mar 8.0 04:47:52 23° W 04:53:12 40° SW 05:02:16 10° SSE visible
03 Mar 9.4 00:28:10 14° E 00:28:10 14° E 00:29:07 10° E visible
03 Mar 7.7 02:26:12 58° SE 02:26:12 58° SE 02:33:54 10° ESE visible
03 Mar 7.9 04:24:14 31° W 04:28:06 43° SW 04:37:16 10° SSE visible
04 Mar 8.1 02:02:39 43° ESE 02:02:39 43° ESE 02:08:43 10° ESE visible
04 Mar 7.8 04:00:41 40° WSW 04:03:00 45° SW 04:12:16 10° SSE visible
04 Mar 9.0 19:19:07 10° SSE 19:19:54 11° SE 19:19:54 11° SE visible
04 Mar 9.1 21:16:44 10° SSW 21:18:01 15° SSW 21:18:01 15° SSW visible
05 Mar 8.6 01:39:11 31° ESE 01:39:11 31° ESE 01:43:32 10° ESE visible
05 Mar 7.7 03:37:14 47° SW 03:37:54 48° SSW 03:47:14 10° SE visible
05 Mar 8.8 05:35:18 10° W 05:40:52 17° SW 05:46:40 10° SSW visible
05 Mar 8.9 18:55:28 10° SE 18:57:11 11° SE 18:57:11 11° SE visible
05 Mar 8.6 20:51:49 10° SSW 20:55:17 24° SSW 20:55:17 24° SSW visible
06 Mar 9.1 01:15:50 20° ESE 01:15:50 20° ESE 01:18:20 10° ESE visible
06 Mar 7.7 03:13:54 49° SSW 03:13:54 49° SSW 03:22:11 10° SE visible
06 Mar 8.7 05:11:58 15° W 05:15:51 19° SW 05:22:08 10° SSW visible
06 Mar 8.2 20:26:55 10° SSW 20:32:31 32° S 20:32:31 32° S visible
06 Mar 9.2 22:29:35 10° WSW 22:30:38 14° WSW 22:30:38 14° WSW visible
07 Mar 9.5 00:52:37 12° ESE 00:52:37 12° ESE 00:53:07 10° ESE visible
07 Mar 8.1 02:50:41 41° SSE 02:50:41 41° SSE 02:57:07 10° SE visible
07 Mar 8.5 04:48:45 19° WSW 04:50:50 21° SW 04:57:32 10° S visible
07 Mar 7.9 20:02:03 10° SSW 20:09:43 34° SE 20:09:43 34° SE visible
07 Mar 8.7 22:04:30 10° WSW 22:07:49 26° WSW 22:07:49 26° WSW visible
